Location: Cahas Mountain Overlook
(37.0833°N, 80.1000°W)
Time: 11:05:15
(UTC-04:00)

A-11 Canister half - Pass Details

Date: 16 February 2026
Orbit: 1524 x 1683 km, 47.3° (Epoch: 16 March)

Event Time Altitude Azimuth Distance (km) Brightness Sun altitude
Rises 18:41:06 0° 266° (W) 4,701 14.0 -8.5°
Reaches altitude 10° 18:44:19 10° 271° (W) 3,706 12.6 -9.2°
Maximum altitude 18:53:18 50° 346° (NNW) 1,867 9.5 -11.0°
Enters shadow 19:01:55 11° 60° (ENE) 3,584 10.4 -12.7°
